Location: Les Moreaux
(47.2278°N, 1.4966°E)
Time: 22:44:47
(UTC+00:00)

Meteor 2-15 - Pass Details

Date: 19 May 2025
Orbit: 935 x 956 km, 82.5° (Epoch: 11 June)

Event Time Altitude Azimuth Distance (km) Brightness Sun altitude
Rises 22:36:22 0° 351° (N) 3,626 9.0 -20.7°
Reaches altitude 10° 22:38:54 10° 354° (N) 2,674 7.9 -20.9°
Maximum altitude 22:45:00 73° 79° (E) 985 4.4 -21.2°
Enters shadow 22:47:15 41° 153° (SSE) 1,341 4.7 -21.3°
